{"data":{"norad_id":45201,"epoch":"2026-05-24T22:50:11.987232Z","epoch_age_seconds":78495,"freshness":"FRESH","line1":"1 45201U 20012Z   26144.95152763  .00039073  00000+0  11924-2 0  9992","line2":"2 45201  53.1581  29.0220 0002446 138.4854 221.6334 15.33568645346843","mean_motion":15.33568645,"eccentricity":0.0002446,"inclination_deg":53.1581,"raan_deg":29.022,"arg_perigee_deg":138.4854,"mean_anomaly_deg":221.6334,"bstar":0.0011924,"rev_number":34684,"period_min":93.898633406136,"perigee_km":463.50144447404,"apogee_km":466.84919286034,"semimajor_km":6843.3123186672,"source":"CELESTRAK","updated_at":"2026-05-25T13:38:16.383225Z"}}